�������l�o���
Date,Time,MP-1(��Sv/h),MP-2(��Sv/h),MP-3(��Sv/h),MP-4(��Sv/h),MP-5(��Sv/h),MP-6(��Sv/h),MP-7(��Sv/h),MP-8(��Sv/h),����,����(m/s),���J
2016/12/23,00:00,1.114,1.840,1.207,2.099,1.441,0.576,1.046,0.968,��,11.6,�L
2016/12/23,00:10,1.115,1.836,1.206,2.097,1.433,0.577,1.045,0.965,��,10.3,�L
2016/12/23,00:20,1.112,1.831,1.204,2.094,1.430,0.575,1.044,0.964,��,10.9,�L
2016/12/23,00:30,1.108,1.831,1.202,2.096,1.430,0.576,1.044,0.962,��,9.6,��
2016/12/23,00:40,1.109,1.830,1.202,2.092,1.430,0.574,1.042,0.962,��,9.0,�L
2016/12/23,00:50,1.106,1.820,1.199,2.085,1.419,0.573,1.041,0.961,��,7.8,�L
2016/12/23,01:00,1.097,1.796,1.187,2.070,1.403,0.571,1.036,0.958,��,7.4,�L
2016/12/23,01:10,1.083,1.773,1.173,2.048,1.385,0.568,1.031,0.954,��쐼,6.8,�L
2016/12/23,01:20,1.078,1.761,1.170,2.033,1.372,0.565,1.025,0.949,��,5.9,�L
2016/12/23,01:30,1.074,1.758,1.167,2.027,1.373,0.566,1.026,0.947,��,6.2,�L
2016/12/23,01:40,1.075,1.757,1.166,2.026,1.370,0.566,1.025,0.949,��쓌,10.3,�L
2016/12/23,01:50,1.076,1.759,1.163,2.023,1.373,0.567,1.028,0.948,��,9.8,�L
2016/12/23,02:00,1.078,1.762,1.167,2.023,1.374,0.566,1.026,0.948,���쐼,4.5,�L
2016/12/23,02:10,1.075,1.762,1.166,2.023,1.372,0.568,1.027,0.950,���k��,4.9,�L
2016/12/23,02:20,1.078,1.764,1.165,2.021,1.376,0.567,1.025,0.950,���k��,8.3,�L
2016/12/23,02:30,1.076,1.767,1.168,2.024,1.376,0.569,1.025,0.950,���k��,6.4,�L
2016/12/23,02:40,1.078,1.768,1.169,2.024,1.378,0.567,1.026,0.949,���k��,6.9,��
2016/12/23,02:50,1.078,1.767,1.167,2.026,1.376,0.568,1.026,0.953,�k��,6.7,��
2016/12/23,03:00,1.079,1.771,1.168,2.025,1.379,0.568,1.027,0.949,�k��,9.0,��
2016/12/23,03:10,1.081,1.776,1.171,2.026,1.380,0.567,1.025,0.950,���k��,10.2,��
2016/12/23,03:20,1.081,1.776,1.169,2.028,1.380,0.569,1.025,0.953,���k��,9.2,��
2016/12/23,03:30,1.080,1.775,1.171,2.027,1.381,0.569,1.027,0.955,���k��,9.8,��
2016/12/23,03:40,1.083,1.776,1.170,2.032,1.385,0.570,1.027,0.954,���k��,8.6,��
2016/12/23,03:50,1.082,1.777,1.173,2.032,1.384,0.567,1.029,0.954,���k��,8.6,��
2016/12/23,04:00,1.083,1.779,1.171,2.033,1.385,0.570,1.028,0.954,���k��,7.7,��
2016/12/23,04:10,1.085,1.782,1.173,2.034,1.385,0.569,1.027,0.957,�k��,6.6,��
2016/12/23,04:20,1.081,1.780,1.172,2.032,1.387,0.568,1.030,0.955,�k�k��,6.5,��
2016/12/23,04:30,1.084,1.782,1.173,2.033,1.385,0.569,1.028,0.957,�k�k��,5.6,��
2016/12/23,04:40,1.084,1.780,1.171,2.033,1.382,0.568,1.031,0.957,�k�k��,3.3,��
2016/12/23,04:50,1.084,1.780,1.173,2.033,1.387,0.568,1.028,0.959,�k��,2.0,��
2016/12/23,05:00,1.085,1.780,1.173,2.036,1.386,0.568,1.028,0.958,���k��,2.0,��
2016/12/23,05:10,1.083,1.785,1.172,2.032,1.390,0.567,1.029,0.958,���k��,1.5,��
2016/12/23,05:20,1.085,1.785,1.174,2.035,1.387,0.568,1.029,0.957,-,CALM,��
2016/12/23,05:30,1.083,1.784,1.174,2.030,1.388,0.568,1.029,0.957,�k��,2.0,��
2016/12/23,05:40,1.085,1.785,1.173,2.032,1.389,0.567,1.032,0.958,�k,1.5,��
2016/12/23,05:50,1.084,1.787,1.174,2.035,1.391,0.569,1.031,0.956,�k�k��,2.0,��
2016/12/23,06:00,1.085,1.783,1.172,2.035,1.386,0.568,1.030,0.957,�k�k��,4.2,��
2016/12/23,06:10,1.084,1.786,1.172,2.035,1.389,0.566,1.030,0.959,�k�k��,5.9,��
2016/12/23,06:20,1.086,1.786,1.173,2.039,1.388,0.568,1.030,0.957,�k�k��,6.0,��
2016/12/23,06:30,1.086,1.786,1.174,2.039,1.391,0.568,1.031,0.957,�k�k��,7.5,��
2016/12/23,06:40,1.085,1.784,1.174,2.039,1.390,0.568,1.032,0.958,�k��,7.3,��
2016/12/23,06:50,1.085,1.787,1.175,2.038,1.390,0.568,1.030,0.956,�k��,5.6,��
2016/12/23,07:00,1.086,1.785,1.173,2.043,1.392,0.568,1.030,0.957,�k��,4.9,��
2016/12/23,07:10,1.084,1.788,1.173,2.040,1.392,0.568,1.030,0.957,�k��,5.8,��
2016/12/23,07:20,1.085,1.787,1.178,2.039,1.391,0.568,1.031,0.958,���k��,5.5,��
2016/12/23,07:30,1.087,1.791,1.174,2.043,1.394,0.567,1.030,0.959,���k��,7.6,��
2016/12/23,07:40,1.086,1.789,1.177,2.041,1.390,0.567,1.032,0.958,���k��,9.4,��
2016/12/23,07:50,1.082,1.789,1.176,2.040,1.392,0.570,1.032,0.958,��,9.0,��
2016/12/23,08:00,1.085,1.788,1.175,2.043,1.393,0.569,1.034,0.961,��,9.3,��
2016/12/23,08:10,1.085,1.792,1.176,2.043,1.390,0.567,1.031,0.958,��,8.9,��
2016/12/23,08:20,1.084,1.790,1.177,2.046,1.393,0.568,1.031,0.958,���k��,10.5,��
2016/12/23,08:30,1.085,1.789,1.175,2.044,1.391,0.568,1.031,0.955,��,8.7,��
2016/12/23,08:40,1.087,1.790,1.177,2.047,1.392,0.571,1.031,0.958,��,7.5,��
2016/12/23,08:50,1.086,1.791,1.177,2.046,1.392,0.568,1.029,0.958,���k��,8.3,��
2016/12/23,09:00,1.084,1.792,1.176,2.046,1.394,0.569,1.033,0.960,���k��,7.8,��
2016/12/23,09:10,1.086,1.793,1.177,2.047,1.397,0.570,1.032,0.960,���k��,6.2,��
2016/12/23,09:20,1.087,1.796,1.178,2.048,1.397,0.570,1.034,0.960,���k��,5.2,��
2016/12/23,09:30,1.088,1.796,1.181,2.050,1.397,0.571,1.033,0.962,��,8.9,��
2016/12/23,09:40,1.089,1.795,1.181,2.048,1.398,0.573,1.034,0.960,��,9.0,��
2016/12/23,09:50,1.089,1.795,1.179,2.049,1.396,0.570,1.035,0.962,���k��,13.0,��
2016/12/23,10:00,1.089,1.794,1.179,2.049,1.398,0.572,1.033,0.961,���k��,14.9,��
2016/12/23,10:10,1.089,1.796,1.181,2.051,1.398,0.571,1.036,0.961,��,17.1,��
2016/12/23,10:20,1.088,1.794,1.180,2.052,1.399,0.572,1.034,0.961,��,13.0,��
2016/12/23,10:30,1.089,1.792,1.182,2.055,1.398,0.569,1.036,0.959,��,17.7,��
2016/12/23,10:40,1.090,1.787,1.182,2.053,1.400,0.570,1.035,0.958,��,14.6,��
2016/12/23,10:50,1.091,1.786,1.184,2.054,1.401,0.571,1.037,0.960,��,16.9,��
2016/12/23,11:00,1.091,1.794,1.182,2.057,1.401,0.570,1.036,0.961,��,15.0,��
2016/12/23,11:10,1.088,1.796,1.174,2.056,1.400,0.570,1.037,0.958,��,14.6,��
2016/12/23,11:20,1.089,1.797,1.171,2.056,1.401,0.570,1.036,0.959,��,15.3,��
2016/12/23,11:30,1.092,1.796,1.173,2.055,1.401,0.570,1.036,0.959,��,14.9,��
2016/12/23,11:40,1.092,1.796,1.179,2.057,1.405,0.571,1.037,0.962,��,18.5,��
2016/12/23,11:50,1.092,1.800,1.184,2.055,1.404,0.570,1.036,0.962,��,14.4,��
2016/12/23,12:00,1.091,1.800,1.179,2.059,1.400,0.571,1.035,0.959,��,13.6,��
2016/12/23,12:10,1.090,1.799,1.181,2.055,1.405,0.572,1.036,0.960,��,11.7,��
2016/12/23,12:20,1.094,1.803,1.185,2.056,1.406,0.571,1.035,0.960,��,19.0,��
2016/12/23,12:30,1.094,1.801,1.186,2.057,1.405,0.572,1.036,0.960,��,16.9,��
2016/12/23,12:40,1.093,1.801,1.186,2.058,1.406,0.574,1.036,0.959,��,11.4,��
2016/12/23,12:50,1.096,1.803,1.185,2.053,1.407,0.573,1.038,0.959,��,13.0,��
2016/12/23,13:00,1.097,1.801,1.187,2.058,1.407,0.572,1.035,0.958,��,12.1,��
2016/12/23,13:10,1.096,1.804,1.187,2.055,1.408,0.572,1.035,0.958,��,14.9,��
2016/12/23,13:20,1.097,1.803,1.192,2.058,1.409,0.573,1.035,0.959,��,16.3,��
2016/12/23,13:30,1.097,1.805,1.189,2.059,1.410,0.573,1.036,0.958,��,13.6,��
2016/12/23,13:40,1.097,1.804,1.187,2.058,1.410,0.573,1.035,0.959,��,11.8,��
2016/12/23,13:50,1.097,1.806,1.188,2.055,1.412,0.573,1.035,0.960,��,12.4,��
2016/12/23,14:00,1.099,1.803,1.188,2.059,1.411,0.573,1.034,0.959,���쐼,11.7,��
2016/12/23,14:10,1.096,1.805,1.188,2.057,1.407,0.572,1.035,0.959,���쐼,10.8,��
2016/12/23,14:20,1.098,1.804,1.190,2.060,1.411,0.573,1.036,0.957,��,11.4,��
2016/12/23,14:30,1.098,1.803,1.189,2.060,1.412,0.573,1.035,0.955,���쐼,11.8,��
2016/12/23,14:40,1.099,1.804,1.187,2.059,1.412,0.572,1.033,0.958,��,12.7,��
2016/12/23,14:50,1.098,1.803,1.191,2.058,1.411,0.572,1.036,0.959,��,8.9,��
2016/12/23,15:00,1.101,1.808,1.190,2.058,1.411,0.571,1.036,0.960,��,7.9,��
2016/12/23,15:10,1.098,1.812,1.190,2.062,1.413,0.572,1.036,0.961,�k�k��,3.3,��
2016/12/23,15:20,1.097,1.808,1.191,2.059,1.412,0.571,1.036,0.961,���k��,1.5,��
2016/12/23,15:30,1.100,1.809,1.190,2.056,1.411,0.570,1.036,0.961,�k�k��,4.0,��
2016/12/23,15:40,1.099,1.812,1.191,2.055,1.410,0.572,1.037,0.962,�k,2.3,��
2016/12/23,15:50,1.096,1.807,1.190,2.056,1.410,0.571,1.034,0.963,���k��,1.7,��
2016/12/23,16:00,1.098,1.811,1.189,2.060,1.413,0.572,1.036,0.961,���쐼,0.6,��
2016/12/23,16:10,1.097,1.810,1.190,2.059,1.413,0.570,1.036,0.960,���k��,2.8,��
2016/12/23,16:20,1.099,1.812,1.191,2.055,1.410,0.570,1.035,0.960,�k��,2.5,��
2016/12/23,16:30,1.096,1.810,1.188,2.055,1.413,0.570,1.037,0.961,�k,3.7,��
2016/12/23,16:40,1.097,1.806,1.188,2.055,1.415,0.571,1.036,0.961,�k�k��,3.6,��
2016/12/23,16:50,1.095,1.807,1.188,2.059,1.418,0.569,1.038,0.961,�k��,5.2,��
2016/12/23,17:00,1.097,1.810,1.189,2.059,1.412,0.569,1.037,0.959,���k��,3.0,��
2016/12/23,17:10,1.096,1.811,1.188,2.057,1.416,0.570,1.036,0.959,���k��,3.1,��
2016/12/23,17:20,1.096,1.809,1.190,2.058,1.415,0.571,1.035,0.960,���k��,5.0,��
2016/12/23,17:30,1.098,1.812,1.189,2.057,1.412,0.569,1.037,0.961,���k��,6.5,��
2016/12/23,17:40,1.097,1.809,1.190,2.057,1.414,0.569,1.037,0.960,���k��,3.8,��
2016/12/23,17:50,1.097,1.811,1.188,2.056,1.413,0.570,1.037,0.959,���k��,4.9,��
2016/12/23,18:00,1.094,1.810,1.190,2.058,1.413,0.570,1.038,0.960,���k��,8.4,��
2016/12/23,18:10,1.096,1.808,1.191,2.059,1.414,0.567,1.038,0.959,���k��,8.9,��
2016/12/23,18:20,1.094,1.808,1.189,2.058,1.415,0.569,1.037,0.957,��,8.7,��
2016/12/23,18:30,1.094,1.811,1.189,2.057,1.413,0.569,1.038,0.958,���k��,7.6,��
2016/12/23,18:40,1.095,1.811,1.188,2.060,1.412,0.569,1.037,0.960,���k��,7.8,��
2016/12/23,18:50,1.095,1.807,1.188,2.057,1.415,0.568,1.036,0.960,���k��,6.9,��
2016/12/23,19:00,1.093,1.812,1.189,2.057,1.412,0.568,1.037,0.959,�k��,7.2,��
2016/12/23,19:10,1.095,1.809,1.188,2.057,1.413,0.570,1.035,0.961,���k��,6.9,��
2016/12/23,19:20,1.095,1.809,1.189,2.061,1.412,0.570,1.034,0.957,�k��,8.4,��
2016/12/23,19:30,1.093,1.811,1.189,2.056,1.414,0.569,1.034,0.958,�k��,4.3,��
2016/12/23,19:40,1.094,1.812,1.188,2.058,1.412,0.569,1.035,0.960,���k��,4.8,��
2016/12/23,19:50,1.092,1.811,1.189,2.057,1.415,0.569,1.034,0.958,���k��,2.6,��
2016/12/23,20:00,1.093,1.811,1.189,2.058,1.412,0.569,1.036,0.958,��,4.8,��
2016/12/23,20:10,1.091,1.808,1.187,2.058,1.413,0.568,1.037,0.959,���k��,2.3,��
2016/12/23,20:20,1.094,1.808,1.192,2.058,1.412,0.567,1.035,0.959,��,3.7,��
2016/12/23,20:30,1.092,1.809,1.187,2.060,1.413,0.569,1.034,0.960,���k��,3.4,��
2016/12/23,20:40,1.091,1.809,1.188,2.055,1.414,0.568,1.035,0.958,���k��,3.7,��
2016/12/23,20:50,1.094,1.812,1.187,2.057,1.413,0.568,1.034,0.959,��,5.2,��
2016/12/23,21:00,1.093,1.810,1.187,2.056,1.411,0.568,1.035,0.959,��,5.8,��
2016/12/23,21:10,1.092,1.810,1.187,2.058,1.412,0.569,1.034,0.959,��,5.4,��
2016/12/23,21:20,1.093,1.809,1.188,2.057,1.413,0.568,1.034,0.960,���k��,4.9,��
2016/12/23,21:30,1.095,1.810,1.187,2.056,1.414,0.567,1.035,0.960,���k��,6.6,��
2016/12/23,21:40,1.093,1.809,1.186,2.055,1.412,0.568,1.035,0.959,��,7.3,��
2016/12/23,21:50,1.091,1.810,1.190,2.058,1.414,0.568,1.034,0.958,���k��,6.0,��
2016/12/23,22:00,1.094,1.808,1.188,2.059,1.411,0.568,1.033,0.960,��,6.9,��
2016/12/23,22:10,1.094,1.812,1.188,2.056,1.410,0.567,1.034,0.958,��,5.4,��
2016/12/23,22:20,1.090,1.810,1.187,2.059,1.414,0.567,1.035,0.957,���k��,6.3,��
2016/12/23,22:30,1.092,1.809,1.187,2.059,1.415,0.568,1.036,0.959,���k��,4.5,��
2016/12/23,22:40,1.092,1.810,1.189,2.061,1.416,0.567,1.035,0.959,��,3.8,��
2016/12/23,22:50,1.094,1.810,1.187,2.055,1.412,0.569,1.036,0.960,���k��,5.7,��
2016/12/23,23:00,1.095,1.809,1.190,2.058,1.412,0.567,1.036,0.958,���k��,4.4,��
2016/12/23,23:10,1.091,1.810,1.188,2.060,1.411,0.568,1.034,0.958,��,2.8,��
2016/12/23,23:20,1.091,1.811,1.186,2.058,1.414,0.567,1.034,0.958,��,2.3,��
2016/12/23,23:30,1.094,1.813,1.186,2.056,1.411,0.568,1.033,0.958,��,4.0,��
2016/12/23,23:40,1.092,1.808,1.189,2.058,1.414,0.569,1.038,0.957,�k��,4.9,��
2016/12/23,23:50,1.091,1.812,1.186,2.059,1.412,0.567,1.035,0.960,�k��,4.4,��
